Weather History for KRXE - October, 2012

Change the Weather History Date:

Monday, October 29, 2012

  Actual Average Record
Temperature  
Mean Temperature 49 °F 40 °F  
Max Temperature 63 °F 52 °F 64 °F (2007)
Min Temperature 34 °F 28 °F 16 °F (2009)
Degree Days  
Heating Degree Days 16 25  
Month to date heating degree days 605 576  
Since 1 July heating degree days 781 934  
Cooling Degree Days 0 0  
Month to date cooling degree days 0 0  
Year to date cooling degree days 419 208  
Moisture  
Dew Point 37 °F    
Average Humidity 72    
Maximum Humidity 100    
Minimum Humidity 43    
Precipitation  
Precipitation 0.00 in 0.03 in 0.38 in (1979)
Month to date precipitation 1.40 1.03  
Year to date precipitation 8.04 10.91  
Sea Level Pressure  
Sea Level Pressure 30.13 in    
Wind  
Wind Speed 6 mph (SE)    
Max Wind Speed 20 mph    
Max Gust Speed 28 mph    
Visibility 10 miles    
Events      
T = Trace of Precipitation, MM = Missing Value Source: NWS Daily Summary

Daily Weather History Graph

Daily Weather History Graph

Search for Another Location

Airport or City:

Trip Planner

Search our weather history database for the weather conditions in past years. The results will help you decide how hot, cold, wet, or windy it might be!

Date:

Astronomy

Oct. 29, 2012 Rise Set
Actual Time 8:00 AM MDT 6:20 PM MDT
Civil Twilight 7:30 AM MDT 6:50 PM MDT
Nautical Twilight 6:56 AM MDT 7:24 PM MDT
Astronomical Twilight 6:23 AM MDT 7:57 PM MDT
Moon 6:13 PM MDT (10/29) 7:55 AM MDT (10/29)
Length of Visible Light 11h 20m
Length of Day
10h 20m
Full, 100% of the Moon is Illuminated
Oct 29
Full
Oct 29
Full
Nov 6
Last Quarter
Nov 13
New
Nov 20
First Quarter

Hourly Weather History & Observations

Time (MDT) Temp. Windchill Dew Point Humidity Pressure Visibility Wind Dir Wind Speed Gust Speed Precip Events Conditions
12:53 AM 37.0 °F - 36.0 °F 96% 30.14 in 10.0 mi Calm Calm - N/A   Clear
1:53 AM 37.0 °F 33.3 °F 36.0 °F 96% 30.13 in 10.0 mi ENE 4.6 mph - N/A   Clear
2:53 AM 36.0 °F 32.1 °F 35.1 °F 97% 30.15 in 10.0 mi NE 4.6 mph - N/A   Clear
3:53 AM 37.0 °F 34.5 °F 35.1 °F 93% 30.14 in 10.0 mi ENE 3.5 mph - N/A   Clear
4:53 AM 36.0 °F 33.3 °F 35.1 °F 97% 30.13 in 10.0 mi NE 3.5 mph - N/A   Partly Cloudy
5:53 AM 34.0 °F - 34.0 °F 100% 30.14 in 10.0 mi Calm Calm - N/A   Clear
6:53 AM 36.0 °F 33.3 °F 35.1 °F 97% 30.14 in 10.0 mi East 3.5 mph - N/A   Mostly Cloudy
7:53 AM 35.1 °F - 34.0 °F 96% 30.14 in 10.0 mi Calm Calm - N/A   Partly Cloudy
8:53 AM 36.0 °F 32.1 °F 34.0 °F 93% 30.15 in 10.0 mi ENE 4.6 mph - N/A   Scattered Clouds
9:53 AM 37.9 °F 34.4 °F 35.1 °F 89% 30.17 in 9.0 mi North 4.6 mph - N/A   Scattered Clouds
10:53 AM 43.0 °F - 37.9 °F 82% 30.17 in 10.0 mi Calm Calm - N/A   Mostly Cloudy
11:53 AM 48.0 °F - 39.0 °F 71% 30.17 in 10.0 mi ESE 4.6 mph - N/A   Clear
12:53 PM 50.0 °F - 39.0 °F 66% 30.14 in 10.0 mi Calm Calm - N/A   Clear
1:53 PM 53.1 °F - 39.9 °F 61% 30.12 in 10.0 mi ENE 6.9 mph - N/A   Clear
2:53 PM 55.0 °F - 42.1 °F 62% 30.09 in 10.0 mi ENE 4.6 mph - N/A   Clear
3:25 PM 62.6 °F - 39.2 °F 42% 30.09 in 10.0 mi SSW 19.6 mph 27.6 mph N/A   Partly Cloudy
3:53 PM 62.1 °F - 39.9 °F 44% 30.05 in 10.0 mi SW 13.8 mph - N/A   Clear
4:53 PM 62.1 °F - 39.0 °F 43% 30.06 in 10.0 mi SW 13.8 mph - N/A   Clear
5:53 PM 59.0 °F - 39.0 °F 48% 30.08 in 10.0 mi SSW 9.2 mph - N/A   Clear
6:53 PM 55.0 °F - 37.9 °F 53% 30.10 in 10.0 mi SSW 10.4 mph - N/A   Clear
7:53 PM 52.0 °F - 37.0 °F 57% 30.12 in 10.0 mi South 9.2 mph - N/A   Clear
8:53 PM 51.1 °F - 36.0 °F 56% 30.12 in 10.0 mi South 10.4 mph - N/A   Clear
9:53 PM 48.9 °F - 35.1 °F 59% 30.13 in 10.0 mi SSW 6.9 mph - N/A   Clear
10:53 PM 48.0 °F - 35.1 °F 61% 30.14 in 10.0 mi SSW 6.9 mph - N/A   Clear
11:53 PM 45.0 °F 41.2 °F 35.1 °F 68% 30.15 in 10.0 mi SW 6.9 mph - N/A   Clear